Regional Weather Roundup
Issued by NWS

Home | Current Version | Previous Version | Graphics & Text | Print | Product List | Glossary On
Versions: 1 2 3 4 5 6 7 8 9 10 11 12 13 14 15 16 17 18 19 20 21 22 23 24 25 26 27 28 29 30 31 32 33 34 35 36 37 38 39 40 41 42 43 44 45 46 47 48 49 50
000
ASUS43 KBIS 261510
RWRND

NORTH DAKOTA REGIONAL WEATHER ROUNDUP
NATIONAL WEATHER SERVICE BISMARCK ND
1000 AM CDT SAT JUL 26 2014

NOTE: "FAIR" INDICATES FEW OR NO CLOUDS BELOW 12,000 FEET WITH NO
SIGNIFICANT WEATHER AND/OR OBSTRUCTIONS TO VISIBILITY.


NDZ001>003-009>011-017-261600-
NORTHWEST NORTH DAKOTA

CITY           SKY/WX    TMP DP  RH WIND       PRES   REMARKS
WILLISTON      PTSUNNY   65  51  60 W25G37    29.91R
MINOT          MOSUNNY   64  51  62 W23G32    29.81S
MINOT AFB      MOSUNNY   64  54  70 W22G33    29.80S
$$

NDZ018>021-031>035-040>046-261600-
SOUTHWEST NORTH DAKOTA

CITY           SKY/WX    TMP DP  RH WIND       PRES   REMARKS
BISMARCK       SUNNY     69  51  52 NW22G30   29.90S
DICKINSON      SUNNY     65  50  58 W21G30    29.96R
GARRISON         N/A     65  54  67 W18       29.87S
HETTINGER ARPT SUNNY     69  48  47 W20G30    30.00R
$$

NDZ004>008-012>016-024-026-027-054-261600-
NORTHEAST NORTH DAKOTA

CITY           SKY/WX    TMP DP  RH WIND       PRES   REMARKS
GRAND FORKS    MOSUNNY   73  58  59 W13       29.74R
GRND FRKS AFB  SUNNY     72  58  60 W17G24    29.76R
DEVILS LAKE    SUNNY     66  52  59 W21G29    29.77S
$$

NDZ022-023-025-028>030-036>039-047>053-261600-
SOUTHEAST NORTH DAKOTA

CITY           SKY/WX    TMP DP  RH WIND       PRES   REMARKS
FARGO          SUNNY     75  61  61 W12       29.79F
JAMESTOWN      SUNNY     71  54  54 NW14      29.83S
$$



USA.gov is the U.S. government's official web portal to all federal, state and local government web resources and services.